Weather History for Fort Drum, NY

Change the Weather History Date:

Sunday, December 9, 2012

  Actual Average Record
Temperature  
Mean Temperature 30 °F -  
Max Temperature 35 °F 34 °F 51 °F (1999)
Min Temperature 26 °F 19 °F -9 °F (2002)
Degree Days  
Heating Degree Days 34    
Moisture  
Dew Point 28 °F    
Average Humidity 91    
Maximum Humidity 100    
Minimum Humidity 80    
Precipitation  
Precipitation 0.27 in - - ()
Sea Level Pressure  
Sea Level Pressure 30.19 in    
Wind  
Wind Speed 7 mph (NNE)    
Max Wind Speed 15 mph    
Max Gust Speed -    
Visibility 10 miles    
Events Rain    
Averages and records for this station are not official NWS values.
T = Trace of Precipitation, MM = Missing Value Source: NWS Daily Summary

Daily Weather History Graph

Daily Weather History Graph

Search for Another Location

Airport:

Trip Planner

Search our weather history database for the weather conditions in past years. The results will help you decide how hot, cold, wet, or windy it might be!

Date:

Astronomy

Dec. 09, 2012 Rise Set
Actual Time 7:26 AM EST 4:24 PM EST
Civil Twilight 6:53 AM EST 4:57 PM EST
Nautical Twilight 6:17 AM EST 5:33 PM EST
Astronomical Twilight 5:41 AM EST 6:08 PM EST
Moon 2:49 AM EST (12/9) 1:35 PM EST (12/9)
Length of Visible Light 10h 04m
Length of Day
8h 58m
Waning Crescent, 19% of the Moon is Illuminated
Dec 9
Waning Crescent
Dec 13
New
Dec 20
First Quarter
Dec 28
Full
Jan 4
Last Quarter

Hourly Weather History & Observations

Time (EST) Temp. Windchill Dew Point Humidity Pressure Visibility Wind Dir Wind Speed Gust Speed Precip Events Conditions
12:55 AM 35.1 °F 29.3 °F 34.9 °F 99% 30.12 in 10.0 mi West 6.9 mph - N/A   Overcast
1:13 AM 35.6 °F 29.9 °F 33.8 °F 93% 30.13 in 10.0 mi West 6.9 mph - N/A   Overcast
1:17 AM 35.6 °F 31.7 °F 33.8 °F 93% 30.13 in 10.0 mi West 4.6 mph - N/A   Overcast
1:18 AM 35.6 °F 30.7 °F 33.8 °F 93% 30.13 in 10.0 mi West 5.8 mph - N/A   Overcast
1:22 AM 35.6 °F 29.9 °F 35.6 °F 100% 30.13 in 10.0 mi West 6.9 mph - N/A   Overcast
1:25 AM 35.6 °F 31.7 °F 33.8 °F 93% 30.13 in 10.0 mi West 4.6 mph - N/A   Overcast
1:27 AM 35.6 °F 30.7 °F 33.8 °F 93% 30.13 in 10.0 mi West 5.8 mph - N/A   Overcast
1:29 AM 35.6 °F 30.7 °F 33.8 °F 93% 30.13 in 10.0 mi West 5.8 mph - N/A   Overcast
1:40 AM 35.6 °F 31.7 °F 33.8 °F 93% 30.14 in 10.0 mi West 4.6 mph - N/A   Overcast
1:55 AM 34.9 °F 29.9 °F 34.7 °F 99% 30.14 in 10.0 mi West 5.8 mph - N/A   Overcast
2:42 AM 35.6 °F 30.7 °F 33.8 °F 93% 30.17 in 10.0 mi Variable 5.8 mph - N/A   Overcast
2:55 AM 34.5 °F 31.6 °F 34.3 °F 99% 30.18 in 10.0 mi WNW 3.5 mph - N/A   Overcast
3:15 AM 33.8 °F 27.0 °F 33.8 °F 100% 30.18 in 10.0 mi West 8.1 mph - N/A   Overcast
3:16 AM 33.8 °F 27.7 °F 33.8 °F 100% 30.19 in 10.0 mi West 6.9 mph - N/A   Overcast
3:22 AM 33.8 °F 27.7 °F 33.8 °F 100% 30.19 in 10.0 mi WNW 6.9 mph - N/A   Overcast
3:24 AM 33.8 °F 27.7 °F 33.8 °F 100% 30.19 in 10.0 mi WNW 6.9 mph - N/A   Overcast
3:25 AM 33.8 °F 27.7 °F 33.8 °F 100% 30.19 in 10.0 mi WNW 6.9 mph - N/A   Overcast
3:28 AM 33.8 °F 28.6 °F 33.8 °F 100% 30.19 in 10.0 mi Variable 5.8 mph - N/A   Overcast
3:55 AM 33.3 °F 28.9 °F 30.4 °F 89% 30.20 in 10.0 mi West 4.6 mph - N/A   Overcast
4:01 AM 33.8 °F 29.6 °F 30.2 °F 87% 30.21 in 10.0 mi West 4.6 mph - N/A   Overcast
4:04 AM 33.8 °F 29.6 °F 30.2 °F 87% 30.21 in 10.0 mi WNW 4.6 mph - N/A   Overcast
4:13 AM 33.8 °F 29.6 °F 30.2 °F 87% 30.21 in 10.0 mi WNW 4.6 mph - N/A   Overcast
4:55 AM 32.2 °F 27.7 °F 30.4 °F 93% 30.23 in 10.0 mi West 4.6 mph - N/A   Overcast
5:00 AM 32.0 °F 26.4 °F 30.2 °F 93% 30.24 in 10.0 mi West 5.8 mph - N/A   Overcast
5:09 AM 32.0 °F 28.7 °F 30.2 °F 93% 30.25 in 10.0 mi WNW 3.5 mph - N/A   Overcast
5:25 AM 32.0 °F 25.6 °F 30.2 °F 93% 30.25 in 10.0 mi North 6.9 mph - N/A   Overcast
5:55 AM 31.1 °F 24.5 °F 28.8 °F 91% 30.27 in 10.0 mi North 6.9 mph - N/A   Overcast
6:00 AM 30.2 °F 22.6 °F 28.4 °F 93% 30.27 in 10.0 mi NNE 8.1 mph - N/A   Overcast
6:02 AM 30.2 °F 22.6 °F 28.4 °F 93% 30.27 in 10.0 mi NNE 8.1 mph - N/A   Overcast
6:41 AM 28.4 °F 21.2 °F 26.6 °F 93% 30.30 in 10.0 mi NNE 6.9 mph - N/A   Overcast
6:55 AM 28.0 °F 20.0 °F 26.1 °F 92% 30.31 in 10.0 mi North 8.1 mph - N/A   Overcast
7:02 AM 28.4 °F 19.7 °F 26.6 °F 93% 30.31 in 10.0 mi NNE 9.2 mph - N/A   Overcast
7:17 AM 28.4 °F 19.7 °F 24.8 °F 86% 30.31 in 10.0 mi NNE 9.2 mph - N/A   Overcast
7:40 AM 26.6 °F 18.2 °F 24.8 °F 93% 30.32 in 10.0 mi NNE 8.1 mph - N/A   Overcast
7:53 AM 26.6 °F 17.5 °F 23.0 °F 86% 30.33 in 10.0 mi NNE 9.2 mph - N/A   Overcast
7:55 AM 26.6 °F 17.5 °F 23.5 °F 88% 30.33 in 10.0 mi NNE 9.2 mph - N/A   Overcast
8:55 AM 26.1 °F 18.4 °F 22.1 °F 85% 30.33 in 10.0 mi NE 6.9 mph - N/A   Overcast
9:40 AM 26.6 °F 18.2 °F 23.0 °F 86% 30.34 in 10.0 mi North 8.1 mph - N/A   Overcast
9:55 AM 26.1 °F 17.6 °F 22.6 °F 87% 30.34 in 10.0 mi NNE 8.1 mph - N/A   Overcast
10:30 AM 26.6 °F 16.8 °F 23.0 °F 86% 30.34 in 10.0 mi NNE 10.4 mph - N/A   Mostly Cloudy
10:42 AM 26.6 °F 16.8 °F 23.0 °F 86% 30.33 in 10.0 mi NE 10.4 mph - N/A   Scattered Clouds
10:55 AM 26.1 °F 16.8 °F 22.3 °F 86% 30.33 in 10.0 mi NNE 9.2 mph - N/A   Scattered Clouds
11:01 AM 26.6 °F 17.5 °F 23.0 °F 86% 30.33 in 10.0 mi NE 9.2 mph - N/A   Mostly Cloudy
11:35 AM 28.4 °F 19.1 °F 23.0 °F 80% 30.30 in 10.0 mi NNE 10.4 mph - N/A   Scattered Clouds
11:55 AM 28.0 °F 19.3 °F 22.6 °F 80% 30.30 in 10.0 mi NNE 9.2 mph - N/A   Scattered Clouds
11:57 AM 28.4 °F 20.4 °F 23.0 °F 80% 30.29 in 10.0 mi NNE 8.1 mph - N/A   Mostly Cloudy
12:31 PM 28.4 °F 19.7 °F 23.0 °F 80% 30.27 in 10.0 mi NE 9.2 mph - N/A   Overcast
12:55 PM 28.8 °F 20.2 °F 23.5 °F 81% 30.26 in 10.0 mi NE 9.2 mph - N/A   Mostly Cloudy
1:55 PM 28.6 °F 19.9 °F 24.1 °F 83% 30.26 in 10.0 mi NNE 9.2 mph - N/A   Mostly Cloudy
2:55 PM 28.2 °F 17.7 °F 24.3 °F 85% 30.26 in 10.0 mi NE 12.7 mph - N/A   Mostly Cloudy
3:10 PM 28.4 °F 17.0 °F 24.8 °F 86% 30.26 in 10.0 mi NE 15.0 mph - N/A   Mostly Cloudy
3:17 PM 28.4 °F 19.1 °F 24.8 °F 86% 30.26 in 10.0 mi NE 10.4 mph - N/A   Mostly Cloudy
3:18 PM 28.4 °F 19.1 °F 24.8 °F 86% 30.26 in 10.0 mi NE 10.4 mph - N/A   Overcast
3:34 PM 28.4 °F 19.7 °F 24.8 °F 86% 30.26 in 10.0 mi NE 9.2 mph - N/A   Overcast
3:45 PM 28.4 °F 20.4 °F 24.8 °F 86% 30.26 in 10.0 mi NE 8.1 mph - N/A   Overcast
3:55 PM 27.7 °F 17.6 °F 24.1 °F 86% 30.25 in 10.0 mi NE 11.5 mph - N/A   Overcast
4:20 PM 26.6 °F 16.8 °F 23.0 °F 86% 30.24 in 10.0 mi NNE 10.4 mph - N/A   Overcast
4:55 PM 26.4 °F 16.6 °F 23.5 °F 89% 30.22 in 10.0 mi NE 10.4 mph - N/A   Overcast
5:55 PM 26.4 °F 18.9 °F 23.4 °F 88% 30.20 in 10.0 mi NE 6.9 mph - N/A   Partly Cloudy
6:55 PM 26.6 °F 19.1 °F 23.7 °F 89% 30.18 in 10.0 mi ENE 6.9 mph - N/A   Mostly Cloudy
7:55 PM 27.3 °F 20.9 °F 24.6 °F 90% 30.12 in 10.0 mi ENE 5.8 mph - N/A   Scattered Clouds
8:27 PM 28.4 °F 21.2 °F 24.8 °F 86% 30.09 in 10.0 mi East 6.9 mph - N/A   Partly Cloudy
8:48 PM 28.4 °F 21.2 °F 26.6 °F 93% 30.07 in 7.0 mi ENE 6.9 mph - N/A   Mostly Cloudy
8:55 PM 28.6 °F 20.7 °F 26.2 °F 91% 30.05 in 6.0 mi NE 8.1 mph - 0.00 in   Overcast
9:11 PM 28.4 °F 19.7 °F 26.6 °F 93% 30.02 in 9.0 mi East 9.2 mph - N/A   Overcast
9:35 PM 30.2 °F 22.6 °F 28.4 °F 93% 30.00 in 7.0 mi ESE 8.1 mph - N/A Rain Light Freezing Rain
9:37 PM 30.2 °F 22.6 °F 28.4 °F 93% 30.00 in 7.0 mi ESE 8.1 mph - N/A Rain Light Freezing Rain
9:40 PM 30.2 °F 22.6 °F 30.2 °F 100% 30.00 in 6.0 mi ESE 8.1 mph - N/A Rain Light Freezing Rain
9:42 PM 30.2 °F 21.9 °F 30.2 °F 100% 29.99 in 6.0 mi East 9.2 mph - N/A Rain Light Freezing Rain
9:55 PM 30.0 °F 22.4 °F 29.7 °F 99% 29.98 in 8.0 mi ENE 8.1 mph - 0.01 in Rain Light Freezing Rain
9:56 PM 30.2 °F 22.6 °F 30.2 °F 100% 29.98 in 8.0 mi East 8.1 mph - N/A Rain Light Freezing Rain
10:29 PM 32.0 °F 24.8 °F 32.0 °F 100% 29.95 in 7.0 mi ESE 8.1 mph - N/A Rain Light Freezing Rain
10:43 PM 33.8 °F 25.8 °F 32.0 °F 93% 29.94 in 5.0 mi ESE 10.4 mph - N/A Rain Rain
10:55 PM 33.4 °F 25.9 °F 33.3 °F 99% 29.95 in 8.0 mi ESE 9.2 mph - 0.12 in Rain Light Rain
11:55 PM 34.7 °F 25.9 °F 34.2 °F 98% 29.88 in 7.0 mi SE 12.7 mph - 0.14 in Rain Rain